| time (UTC) | temp C | wind direction | speed KPH | gust KPH | rain 1hr cm | rain 24hr cm | rain mn cm | humidity % | barometer mb |
| 20260906225152 | 36 | 135 | 4.8 | 6.4 | 0.00 | 0.00 | 0.00 | 37 | 1013.7 |
| 20260906223135 | 37 | 99 | 6.4 | 11.3 | 0.00 | 0.00 | 0.00 | 35 | 1013.7 |
| 20260906222233 | 37 | 147 | 4.8 | 8.0 | 0.00 | 0.00 | 0.00 | 37 | 1013.9 |
| 20260906221333 | 37 | 100 | 9.7 | 12.9 | 0.00 | 0.00 | 0.00 | 37 | 1013.8 |
| 20260906214333 | 37 | 153 | 1.6 | 8.0 | 0.00 | 0.00 | 0.00 | 36 | 1013.9 |
| 20260906213335 | 36 | 92 | 3.2 | 8.0 | 0.00 | 0.00 | 0.00 | 38 | 1013.9 |
| 20260906212333 | 36 | 152 | 3.2 | 6.4 | 0.00 | 0.00 | 0.00 | 38 | 1014.2 |
| 20260906212234 | 36 | 133 | 4.8 | 8.0 | 0.00 | 0.00 | 0.00 | 39 | 1014.3 |
| 20260906210234 | 36 | 166 | 1.6 | 8.0 | 0.00 | 0.00 | 0.00 | 37 | 1014.5 |
| 20260906205236 | 37 | 100 | 4.8 | 12.9 | 0.00 | 0.00 | 0.00 | 38 | 1014.6 |
| 20260906204334 | 36 | 158 | 3.2 | 9.7 | 0.00 | 0.00 | 0.00 | 38 | 1014.8 |
| 20260906203335 | 37 | 111 | 11.3 | 16.1 | 0.00 | 0.00 | 0.00 | 38 | 1014.9 |
| 20260906202335 | 37 | 162 | 8.0 | 17.7 | 0.00 | 0.00 | 0.00 | 38 | 1014.9 |
| 20260906201337 | 36 | 155 | 9.7 | 14.5 | 0.00 | 0.00 | 0.00 | 39 | 1015.2 |
| 20260906200433 | 36 | 137 | 11.3 | 20.9 | 0.00 | 0.00 | 0.00 | 40 | 1015.4 |
| 20260906195449 | 36 | 125 | 4.8 | 8.0 | 0.00 | 0.00 | 0.00 | 41 | 1015.3 |
| 20260906194435 | 35 | 153 | 4.8 | 9.7 | 0.00 | 0.00 | 0.00 | 41 | 1015.3 |
| 20260906192533 | 36 | 108 | 4.8 | 11.3 | 0.00 | 0.00 | 0.00 | 41 | 1015.7 |
| 20260906191535 | 35 | 140 | 6.4 | 9.7 | 0.00 | 0.00 | 0.00 | 42 | 1015.7 |
| 20260906190535 | 35 | 109 | 14.5 | 24.1 | 0.00 | 0.00 | 0.00 | 44 | 1015.8 |
| 20260906185535 | 35 | 168 | 6.4 | 9.7 | 0.00 | 0.00 | 0.00 | 42 | 1015.9 |
| 20260906184634 | 36 | 174 | 4.8 | 12.9 | 0.00 | 0.00 | 0.00 | 42 | 1016.0 |
| 20260906182735 | 35 | 101 | 9.7 | 14.5 | 0.00 | 0.00 | 0.00 | 43 | 1016.3 |
| 20260906181735 | 35 | 175 | 8.0 | 16.1 | 0.00 | 0.00 | 0.00 | 44 | 1016.4 |
| 20260906180736 | 35 | 180 | 0.0 | 3.2 | 0.00 | 0.00 | 0.00 | 43 | 1016.4 |
| 20260906175834 | 35 | 180 | 4.8 | 12.9 | 0.00 | 0.00 | 0.00 | 45 | 1016.6 |
| 20260906174834 | 34 | 151 | 1.6 | 3.2 | 0.00 | 0.00 | 0.00 | 46 | 1016.7 |
| 20260906174735 | 34 | 120 | 8.0 | 14.5 | 0.00 | 0.00 | 0.00 | 45 | 1016.8 |
| 20260906173735 | 34 | 165 | 6.4 | 8.0 | 0.00 | 0.00 | 0.00 | 46 | 1017.0 |
| 20260906173636 | 34 | 150 | 8.0 | 14.5 | 0.00 | 0.00 | 0.00 | 46 | 1016.9 |
| 20260906173534 | 34 | 144 | 8.0 | 11.3 | 0.00 | 0.00 | 0.00 | 46 | 1017.0 |
| 20260906172550 | 34 | 125 | 11.3 | 19.3 | 0.00 | 0.00 | 0.00 | 46 | 1017.3 |
| 20260906171536 | 33 | 167 | 3.2 | 4.8 | 0.00 | 0.00 | 0.00 | 48 | 1017.3 |
| 20260906170633 | 33 | 143 | 4.8 | 8.0 | 0.00 | 0.00 | 0.00 | 48 | 1017.3 |
| 20260906165633 | 33 | 138 | 9.7 | 14.5 | 0.00 | 0.00 | 0.00 | 50 | 1017.4 |
| 20260906164636 | 33 | 149 | 8.0 | 12.9 | 0.00 | 0.00 | 0.00 | 51 | 1017.5 |
| 20260906163635 | 33 | 136 | 8.0 | 11.3 | 0.00 | 0.00 | 0.00 | 52 | 1017.6 |
| 20260906162635 | 33 | 177 | 3.2 | 6.4 | 0.00 | 0.00 | 0.00 | 52 | 1017.5 |
| 20260906161634 | 33 | 184 | 4.8 | 9.7 | 0.00 | 0.00 | 0.00 | 52 | 1017.5 |
| 20260906160733 | 33 | 141 | 11.3 | 14.5 | 0.00 | 0.00 | 0.00 | 51 | 1017.5 |
| 20260906155734 | 33 | 124 | 3.2 | 8.0 | 0.00 | 0.00 | 0.00 | 53 | 1017.5 |
| 20260906154734 | 32 | 135 | 1.6 | 4.8 | 0.00 | 0.00 | 0.00 | 57 | 1017.5 |
| 20260906153734 | 31 | 143 | 3.2 | 6.4 | 0.00 | 0.00 | 0.00 | 59 | 1017.4 |
| 20260906152733 | 32 | 138 | 3.2 | 8.0 | 0.00 | 0.00 | 0.00 | 60 | 1017.3 |
| 20260906151735 | 32 | 114 | 4.8 | 8.0 | 0.00 | 0.00 | 0.00 | 59 | 1017.1 |
| 20260906150833 | 32 | 151 | 4.8 | 8.0 | 0.00 | 0.00 | 0.00 | 59 | 1017.2 |
| 20260906145932 | 32 | 135 | 1.6 | 4.8 | 0.00 | 0.00 | 0.00 | 60 | 1017.2 |
| 20260906144035 | 31 | 157 | 0.0 | 3.2 | 0.00 | 0.00 | 0.00 | 64 | 1016.9 |
| 20260906143037 | 31 | 151 | 0.0 | 1.6 | 0.00 | 0.00 | 0.00 | 65 | 1017.1 |
| 20260906142034 | 30 | 183 | 0.0 | 1.6 | 0.00 | 0.00 | 0.00 | 66 | 1017.3 |
| 20260906135034 | 28 | 157 | 0.0 | 1.6 | 0.00 | 0.00 | 0.00 | 73 | 1017.2 |
| 20260906134035 | 28 | 157 | 0.0 | 1.6 | 0.00 | 0.00 | 0.00 | 76 | 1017.1 |
| 20260906133133 | 27 | 123 | 4.8 | 6.4 | 0.00 | 0.00 | 0.00 | 77 | 1017.1 |
| 20260906132136 | 27 | 135 | 3.2 | 6.4 | 0.00 | 0.00 | 0.00 | 80 | 1017.2 |
| 20260906131234 | 27 | 112 | 3.2 | 4.8 | 0.00 | 0.00 | 0.00 | 81 | 1016.9 |
| 20260906130251 | 26 | 135 | 1.6 | 3.2 | 0.00 | 0.00 | 0.00 | 83 | 1017.1 |
| 20260906125332 | 26 | 135 | 1.6 | 4.8 | 0.00 | 0.00 | 0.00 | 83 | 1016.9 |
| 20260906123333 | 26 | 135 | 0.0 | 1.6 | 0.00 | 0.00 | 0.00 | 85 | 1016.9 |
| 20260906121433 | 25 | 135 | 3.2 | 3.2 | 0.00 | 0.00 | 0.00 | 84 | 1016.7 |
| 20260906120433 | 25 | 135 | 0.0 | 1.6 | 0.00 | 0.00 | 0.00 | 85 | 1016.6 |
| 20260906115532 | 25 | 135 | 1.6 | 3.2 | 0.00 | 0.00 | 0.00 | 85 | 1016.6 |
| 20260906114536 | 25 | 135 | 1.6 | 3.2 | 0.00 | 0.00 | 0.00 | 84 | 1016.5 |
| 20260906113633 | 25 | 135 | 1.6 | 1.6 | 0.00 | 0.00 | 0.00 | 84 | 1016.4 |
| 20260906111733 | 26 | 135 | 1.6 | 3.2 | 0.00 | 0.00 | 0.00 | 84 | 1016.3 |
| 20260906110832 | 26 | 135 | 1.6 | 4.8 | 0.00 | 0.00 | 0.00 | 84 | 1016.4 |
| 20260906105833 | 26 | 135 | 3.2 | 4.8 | 0.00 | 0.00 | 0.00 | 84 | 1016.3 |
| 20260906104932 | 26 | 135 | 0.0 | 1.6 | 0.00 | 0.00 | 0.00 | 83 | 1016.1 |
| 20260906103934 | 25 | 180 | 0.0 | 1.6 | 0.00 | 0.00 | 0.00 | 83 | 1016.1 |
| 20260906102035 | 25 | 180 | 0.0 | 0.0 | 0.00 | 0.00 | 0.00 | 82 | 1016.0 |
| 20260906101034 | 26 | 180 | 0.0 | 0.0 | 0.00 | 0.00 | 0.00 | 81 | 1015.8 |
| 20260906100034 | 26 | 180 | 0.0 | 0.0 | 0.00 | 0.00 | 0.00 | 80 | 1015.8 |
| 20260906095035 | 26 | 180 | 0.0 | 0.0 | 0.00 | 0.00 | 0.00 | 79 | 1015.8 |
| 20260906094132 | 26 | 180 | 0.0 | 0.0 | 0.00 | 0.00 | 0.00 | 79 | 1015.6 |
| 20260906093132 | 26 | 180 | 0.0 | 0.0 | 0.00 | 0.00 | 0.00 | 77 | 1015.5 |
| 20260906092135 | 26 | 180 | 0.0 | 1.6 | 0.00 | 0.00 | 0.00 | 77 | 1015.4 |
| 20260906091134 | 27 | 225 | 0.0 | 0.0 | 0.00 | 0.00 | 0.00 | 77 | 1015.3 |
| 20260906085132 | 27 | 225 | 0.0 | 3.2 | 0.00 | 0.00 | 0.00 | 77 | 1015.2 |
| 20260906083133 | 27 | 178 | 1.6 | 6.4 | 0.00 | 0.00 | 0.00 | 76 | 1015.4 |
| 20260906082133 | 27 | 157 | 1.6 | 1.6 | 0.00 | 0.00 | 0.00 | 75 | 1015.3 |
| 20260906081132 | 27 | 180 | 0.0 | 1.6 | 0.00 | 0.00 | 0.00 | 76 | 1015.2 |
| 20260906080135 | 27 | 176 | 1.6 | 4.8 | 0.00 | 0.00 | 0.00 | 74 | 1015.3 |
| 20260906073151 | 27 | 180 | 1.6 | 4.8 | 0.00 | 0.00 | 0.00 | 73 | 1015.4 |
| 20260906071133 | 28 | 192 | 1.6 | 3.2 | 0.00 | 0.00 | 0.00 | 72 | 1015.5 |
| 20260906071032 | 28 | 202 | 0.0 | 0.0 | 0.00 | 0.00 | 0.00 | 72 | 1015.6 |
| 20260906070035 | 28 | 187 | 3.2 | 6.4 | 0.00 | 0.00 | 0.00 | 71 | 1015.6 |
| 20260906065033 | 28 | 167 | 3.2 | 6.4 | 0.00 | 0.00 | 0.00 | 69 | 1015.8 |
| 20260906064034 | 28 | 158 | 1.6 | 4.8 | 0.00 | 0.00 | 0.00 | 69 | 1015.6 |
| 20260906061231 | 28 | 202 | 0.0 | 1.6 | 0.00 | 0.00 | 0.00 | 67 | 1015.6 |
| 20260906060232 | 28 | 202 | 0.0 | 1.6 | 0.00 | 0.00 | 0.00 | 67 | 1015.7 |
| 20260906055233 | 28 | 180 | 3.2 | 6.4 | 0.00 | 0.00 | 0.00 | 66 | 1015.7 |
| 20260906054235 | 28 | 190 | 1.6 | 3.2 | 0.00 | 0.00 | 0.00 | 66 | 1015.7 |
| 20260906053233 | 28 | 186 | 3.2 | 4.8 | 0.00 | 0.00 | 0.00 | 65 | 1015.6 |
| 20260906052232 | 29 | 180 | 1.6 | 1.6 | 0.00 | 0.00 | 0.00 | 65 | 1015.6 |
| 20260906051331 | 29 | 180 | 0.0 | 1.6 | 0.00 | 0.00 | 0.00 | 63 | 1015.6 |
| 20260906050332 | 29 | 157 | 0.0 | 1.6 | 0.00 | 0.00 | 0.00 | 63 | 1015.6 |
| 20260906045337 | 30 | 174 | 1.6 | 6.4 | 0.00 | 0.00 | 0.00 | 63 | 1015.6 |
| 20260906044336 | 30 | 172 | 1.6 | 4.8 | 0.00 | 0.00 | 0.00 | 61 | 1015.6 |
| 20260906043336 | 30 | 179 | 3.2 | 6.4 | 0.00 | 0.00 | 0.00 | 62 | 1015.8 |
| 20260906042338 | 30 | 157 | 6.4 | 9.7 | 0.00 | 0.00 | 0.00 | 62 | 1015.6 |
| 20260906040337 | 30 | 160 | 1.6 | 4.8 | 0.00 | 0.00 | 0.00 | 60 | 1015.5 |
| 20260906035336 | 30 | 196 | 0.0 | 3.2 | 0.00 | 0.00 | 0.00 | 61 | 1015.6 |
| 20260906033339 | 30 | 135 | 4.8 | 8.0 | 0.00 | 0.00 | 0.00 | 59 | 1015.5 |
| 20260906032335 | 30 | 173 | 6.4 | 11.3 | 0.00 | 0.00 | 0.00 | 58 | 1015.5 |
| 20260906030338 | 31 | 161 | 4.8 | 8.0 | 0.00 | 0.00 | 0.00 | 56 | 1015.7 |
| 20260906025338 | 31 | 142 | 8.0 | 14.5 | 0.00 | 0.00 | 0.00 | 56 | 1015.5 |
| 20260906024337 | 31 | 162 | 4.8 | 11.3 | 0.00 | 0.00 | 0.00 | 56 | 1015.4 |
| 20260906023336 | 31 | 145 | 4.8 | 8.0 | 0.00 | 0.00 | 0.00 | 56 | 1015.3 |
| 20260906022435 | 31 | 170 | 4.8 | 8.0 | 0.00 | 0.00 | 0.00 | 56 | 1015.2 |
| 20260906020438 | 31 | 150 | 4.8 | 8.0 | 0.00 | 0.00 | 0.00 | 54 | 1014.9 |
| 20260906015438 | 31 | 171 | 3.2 | 9.7 | 0.00 | 0.00 | 0.00 | 53 | 1014.8 |
| 20260906014535 | 32 | 151 | 4.8 | 8.0 | 0.00 | 0.00 | 0.00 | 52 | 1014.7 |
| 20260906013539 | 32 | 136 | 8.0 | 17.7 | 0.00 | 0.00 | 0.00 | 49 | 1014.5 |
| 20260906012538 | 33 | 140 | 8.0 | 20.9 | 0.00 | 0.00 | 0.00 | 48 | 1014.3 |
| 20260906011636 | 33 | 122 | 9.7 | 19.3 | 0.00 | 0.00 | 0.00 | 47 | 1013.9 |
| 20260906010735 | 34 | 164 | 6.4 | 12.9 | 0.00 | 0.00 | 0.00 | 45 | 1013.9 |
| 20260906005736 | 34 | 134 | 4.8 | 8.0 | 0.00 | 0.00 | 0.00 | 42 | 1013.7 |
| 20260906004737 | 35 | 143 | 4.8 | 9.7 | 0.00 | 0.00 | 0.00 | 41 | 1013.6 |
| 20260906003835 | 35 | 146 | 3.2 | 9.7 | 0.00 | 0.00 | 0.00 | 40 | 1013.7 |
| 20260906002837 | 35 | 147 | 3.2 | 8.0 | 0.00 | 0.00 | 0.00 | 40 | 1013.7 |
| 20260906001839 | 35 | 138 | 1.6 | 3.2 | 0.00 | 0.00 | 0.00 | 38 | 1013.7 |
| 20260905235938 | 36 | 132 | 3.2 | 8.0 | 0.00 | 0.00 | 0.00 | 37 | 1013.6 |
| 20260905235035 | 36 | 157 | 4.8 | 9.7 | 0.00 | 0.00 | 0.00 | 37 | 1013.4 |
| 20260905234053 | 37 | 162 | 4.8 | 6.4 | 0.00 | 0.00 | 0.00 | 36 | 1013.3 |
| 20260905233137 | 37 | 139 | 1.6 | 3.2 | 0.00 | 0.00 | 0.00 | 35 | 1013.6 |
| 20260905232136 | 37 | 144 | 1.6 | 4.8 | 0.00 | 0.00 | 0.00 | 34 | 1013.4 |
| 20260905231139 | 38 | 190 | 3.2 | 4.8 | 0.00 | 0.00 | 0.00 | 34 | 1013.5 |